This demonstration page uses our WeatherBlox Daily Observations layout. Learn more.

Left ArrowRight Arrow

34.16533, -84.80231

Hourly Observations for March 2, 2020

Temp ( °F °C ) Dew Point ( °F °C ) Humidity (%) Winds ( mph kmh ) Pressure ( in mb ) Visibility ( mi km ) Precip ( " mm )
12:53 am 00:53 Mostly Clear 45 7.2 36 2.2 71 71 SE 5 7 30.13 1020 10 16 0.00 0.00
1:53 am 01:53 Mostly Clear 44 6.7 37 2.8 76 76 SE 6 9 30.13 1020 10 16 0.00 0.00
2:53 am 02:53 Clear 49 9.4 37 2.8 64 64 SE 6 9 30.10 1019 10 16 0.00 0.00
3:53 am 03:53 Mostly Clear 49 9.4 38 3.3 66 66 N 3 6 30.07 1018 10 16 0.00 0.00
4:53 am 04:53 Clear 53 11.7 38 3.3 57 57 VRB 3 6 30.05 1018 10 16 0.00 0.00
5:53 am 05:53 Cloudy 52 11.1 38 3.3 59 59 S 7 11 30.05 1018 10 16 0.00 0.00
6:53 am 06:53 Cloudy 52 11.1 39 3.9 61 61 Calm 30.03 1017 10 16 0.00 0.00
7:53 am 07:53 Cloudy 53 11.7 39 3.9 59 59 S 7 11 30.03 1017 10 16 0.00 0.00
8:53 am 08:53 Cloudy with Light Rain 52 11.1 41 5 66 66 S 7 11 30.06 1018 5 8 0.02 0.51
9:53 am 09:53 Cloudy with Rain 50 10 46 7.8 86 86 E 3 6 30.06 1018 5 8 0.09 2.29
10:53 am 10:53 Cloudy with Light Rain 50 10 46 7.8 86 86 ESE 5 7 30.06 1018 6 10 0.12 3.05
11:53 am 11:53 Cloudy with Light Rain 51 10.6 48 8.9 89 89 SSE 8 13 30.06 1018 5 8 0.15 3.81
12:53 pm 12:53 Cloudy with Light Rain 53 11.7 49 9.4 86 86 VRB 6 9 30.04 1017 6 10 0.04 1.02
1:21 pm 13:21 Cloudy with Light Rain 52 11.1 49 9.4 89 89 VRB 5 7 30.04 1017 4 6 0.04 1.02
1:53 pm 13:53 Cloudy with Light Rain 53 11.7 49 9.4 86 86 VRB 3 6 29.99 1016 6 10 0.07 1.78
2:40 pm 14:40 Cloudy with Light Rain 53 11.7 51 10.6 93 93 Calm 29.99 1016 3 4 0.05 1.27
2:49 pm 14:49 Cloudy with Rain 54 12 52 11 94 94 Calm 29.99 1016 3 5 0.06 1.52
2:53 pm 14:53 Cloudy with Light Rain 53 11.7 51 10.6 93 93 VRB 3 6 29.98 1015 3 5 0.07 1.78
3:16 pm 15:16 Cloudy 54 12.2 51 10.6 90 90 SE 5 7 29.99 1016 10 16 0.00 0.00
3:53 pm 15:53 Cloudy with Light Rain 54 12.2 51 10.6 90 90 VRB 5 7 29.96 1015 10 16 0.02 0.51
4:53 pm 16:53 Cloudy 55 12.8 51 10.6 87 87 SSE 3 6 29.94 1014 10 16 0.00 0.00
5:53 pm 17:53 Cloudy 55 12.8 52 11.1 90 90 E 3 6 29.93 1014 10 16 0.01 0.25
6:13 pm 18:13 Cloudy 55 12.8 52 11.1 90 90 Calm 29.96 1015 10 16 0.00 0.00
6:53 pm 18:53 Cloudy with Light Rain 54 12.2 52 11.1 93 93 ENE 3 6 29.94 1014 10 16 0.00 0.00
7:08 pm 19:08 Cloudy 54 12.2 52 11.1 93 93 Calm 29.96 1015 10 16 0.00 0.00
7:21 pm 19:21 Cloudy 54 12.2 52 11.1 93 93 ENE 3 6 29.96 1015 9 14 0.00 0.00
7:53 pm 19:53 Cloudy 54 12.2 52 11.1 93 93 Calm 29.94 1014 9 14 0.00 0.00
8:00 pm 20:00 Cloudy 54 12.2 52 11.1 93 93 Calm 29.96 1015 10 16 0.00 0.00
8:53 pm 20:53 Cloudy 54 12.2 52 11.1 93 93 Calm 29.94 1014 8 13 0.00 0.00
9:53 pm 21:53 Cloudy with Mist and Fog 55 12.8 52 11.1 90 90 SE 5 7 29.92 1013 5 8 0.00 0.00
10:04 pm 22:04 Cloudy with Light Rain 55 12.8 52 11.1 90 90 E 3 6 29.94 1014 5 8 0.03 0.76
10:50 pm 22:50 Cloudy with Mist and Fog 54 12 52 11 94 94 NE 5 7 29.94 1014 4 6 0.03 0.76
10:53 pm 22:53 Cloudy with Mist and Fog 53 11.7 51 10.6 93 93 ESE 6 9 29.92 1013 4 6 0.03 0.76
11:25 pm 23:25 Cloudy with Nearby Thunderstorms 53 11.7 51 10.6 93 93 E 5 7 29.93 1014 5 8 0.00 0.00
11:53 pm 23:53 Cloudy with Nearby Thunderstorms 53 11.7 51 10.6 93 93 E 3 6 29.91 1013 4 6 0.00 0.00

Powered by AerisWeather